This demonstration page uses our WeatherBlox Daily Observations layout. Learn more.

Left ArrowRight Arrow

39.92423, -83.80882

Hourly Observations for November 14, 2015

Temp ( °F °C ) Dew Point ( °F °C ) Humidity (%) Winds ( mph kmh ) Pressure ( in mb ) Visibility ( mi km ) Precip ( " mm )
12:56 am 00:56 Clear 32 0 25 -3.8 76 76 W 7 11 30.24 1024 10 16.0934 0 0
1:56 am 01:56 Clear 29 -1.6 24 -4.4 81 81 SW 7 11 30.25 1025 10 16.0934 0 0
2:56 am 02:56 Clear 30 -1.1 24 -4.4 79 79 WSW 7 11 30.28 1025 10 16.0934 0 0
3:56 am 03:56 Clear 29 -1.6 24 -4.4 81 81 WSW 7 11 30.29 1026 10 16.0934 0 0
4:56 am 04:56 Clear 29 -1.6 24 -4.4 81 81 W 7 11 30.31 1026 10 16.0934 0 0
5:56 am 05:56 Clear 28 -2.2 24 -4.4 85 85 WSW 7 11 30.33 1027 10 16.0934 0 0
6:56 am 06:56 Clear 26 -3.3 23 -5 88 88 SW 5 7 30.35 1028 10 16.0934 0 0
7:56 am 07:56 Sunny 27 -2.7 24 -4.4 88 88 SW 5 7 30.37 1029 10 16.0934 0 0
8:56 am 08:56 Sunny 35 1.6 28 -2.2 76 76 W 6 9 30.39 1029 10 16.0934 0 0
9:56 am 09:56 Sunny 40 4.4 30 -1.1 68 68 W 7 11 30.41 1030 10 16.0934 0 0
10:56 am 10:56 Sunny 43 6.1 32 0 65 65 W 8 13 30.41 1030 10 16.0934 0 0
11:56 am 11:56 Sunny 46 7.7 31 -0.5 56 56 SW 9 15 30.4 1030 10 16.0934 0 0
12:56 pm 12:56 Sunny 48 8.8 30 -1.1 50 50 W 5 7 30.38 1029 10 16.0934 0 0
1:56 pm 13:56 Sunny 50 10 28 -2.2 43 43 W 8 13 30.38 1029 10 16.0934 0 0
2:56 pm 14:56 Sunny 52 11.1 25 -3.8 35 35 SW 10 17 30.37 1029 10 16.0934 0 0
3:56 pm 15:56 Sunny 52 11.1 26 -3.3 37 37 WSW 9 15 30.37 1029 10 16.0934 0 0
4:56 pm 16:56 Sunny 49 9.4 28 -2.2 44 44 SW 7 11 30.37 1029 10 16.0934 0 0
5:56 pm 17:56 Clear 43 6.1 28 -2.2 56 56 S 5 7 30.38 1029 10 16.0934 0 0
6:56 pm 18:56 Clear 41 5 28 -2.2 60 60 S 5 7 30.39 1029 10 16.0934 0 0
7:56 pm 19:56 Clear 42 5.5 27 -2.7 56 56 S 7 11 30.39 1029 10 16.0934 0 0
8:56 pm 20:56 Clear 42 5.5 27 -2.7 56 56 SSW 9 15 30.38 1029 10 16.0934 0 0
9:56 pm 21:56 Clear 43 6.1 27 -2.7 54 54 SSW 12 19 30.37 1029 10 16.0934 0 0
10:56 pm 22:56 Clear 42 5.5 27 -2.7 56 56 SSW 12 19 30.37 1029 10 16.0934 0 0
11:56 pm 23:56 Clear 43 6.1 27 -2.7 54 54 SSW 10 17 30.37 1028 10 16.0934 0 0

Powered by AerisWeather